GFSNGP_500_rhum_207.txt.gz
RH
96 98 95 88 83 96 100 100 100 96 97 83 62 49 41 40 35 49 70 65 52 59 71 99 100 84 100 87 94 88 70 69 58 98 89 98 87 95 83 69 98 97 100 100
78 96 100 92 94 100 100 99 86 58 50 54 96 100 100 72 72 59 84 88 79 84 82 86 90 93 72 78 89 88 93 97 76 67 65 63 51 54 79 60 56 76 96 100
76 95 100 79 93 90 78 64 49 49 63 76 91 88 70 42 55 68 95 100 100 100 100 86 98 58 32 29 43 80 71 85 97 67 46 62 82 55 75 78 92 84 61 55
99 98 92 82 69 48 35 40 64 98 100 79 44 70 79 75 79 100 100 100 97 100 100 100 76 38 16 22 11 9 20 70 97 54 49 79 90 74 40 55 99 100 99 100
90 74 58 34 40 42 56 93 98 88 78 70 49 88 100 72 100 100 100 100 100 86 96 99 65 49 17 12 6 5 14 66 99 100 98 81 78 66 72 100 100 100 100 100
36 56 77 70 91 90 96 99 99 98 75 40 95 86 100 100 100 97 98 99 68 86 78 48 55 44 8 9 8 6 8 24 100 100 100 100 100 100 100 100 100 99 100 100
100 100 100 100 98 100 100 95 100 73 58 90 100 99 97 100 100 100 93 100 78 82 74 44 32 16 12 16 18 12 6 12 83 100 100 100 100 100 100 100 100 100 100 100
100 100 100 100 100 97 75 74 73 67 89 100 97 95 100 100 100 100 100 100 100 88 80 63 37 30 20 15 12 9 10 8 26 95 100 100 100 100 100 100 100 100 100 100
100 100 100 100 100 94 67 56 66 98 97 82 99 100 100 99 94 100 100 96 92 71 66 57 40 28 17 10 10 9 8 10 11 30 100 100 100 100 100 100 100 100 100 100
100 77 100 94 82 60 87 100 100 100 100 100 100 98 91 61 54 46 51 29 37 35 21 15 23 21 12 9 9 9 6 7 10 14 74 100 100 100 100 100 100 100 100 100
75 90 99 100 100 100 100 100 96 93 100 100 59 37 30 19 12 10 9 8 7 7 8 8 10 12 13 8 6 7 8 7 6 9 22 76 100 100 100 100 98 98 100 100
100 100 99 93 95 98 100 100 100 98 95 59 25 14 11 10 10 9 8 7 8 9 15 26 37 36 25 29 33 29 16 16 7 8 9 27 89 100 100 99 98 93 98 99
80 79 81 94 94 100 100 100 86 42 29 22 19 10 9 9 11 14 40 73 77 76 73 76 74 66 68 59 27 40 29 22 16 7 8 9 30 77 100 100 100 100 99 98
95 88 90 94 100 92 53 45 37 28 23 19 13 11 11 11 19 39 58 80 82 76 78 82 85 85 55 45 72 72 75 59 52 27 7 7 7 28 93 100 100 100 100 100
92 94 66 56 62 55 48 42 31 24 21 15 13 12 14 15 15 16 18 20 20 29 47 69 88 73 57 71 84 93 91 86 55 41 22 7 6 5 47 100 100 100 100 97
84 95 97 91 65 59 55 49 45 38 31 24 19 17 18 18 16 16 21 23 22 20 21 22 54 98 82 96 79 75 95 74 61 31 28 12 6 5 16 100 100 100 100 100
78 80 77 75 73 72 73 76 69 60 60 53 44 31 22 21 28 35 37 35 30 24 19 21 22 70 100 99 91 84 91 38 44 22 22 16 9 6 25 81 100 100 100 100
94 92 93 90 81 73 62 54 60 60 70 71 64 52 48 48 47 44 42 39 39 34 30 24 19 20 57 98 99 97 83 92 87 87 75 53 70 19 25 38 58 92 100 100
79 82 87 84 81 81 79 76 82 80 77 73 70 66 67 68 64 56 46 37 31 37 34 28 22 18 20 84 100 98 100 100 100 100 97 98 31 30 46 64 95 100 100 95
71 80 84 85 94 99 98 89 69 57 65 71 71 65 64 60 56 53 46 39 34 32 28 26 20 16 17 27 100 100 100 100 100 100 100 100 99 94 94 100 100 100 100 100
100 100 100 100 100 100 85 84 74 76 75 64 55 48 44 38 29 25 23 21 19 19 19 18 17 16 14 17 66 100 100 100 100 100 100 100 100 100 100 100 100 100 100 100
100 100 100 100 100 94 73 49 41 59 89 95 72 46 32 28 28 33 33 33 31 27 26 22 17 15 14 14 21 96 100 100 100 100 100 100 100 100 100 100 100 100 100 99
85 83 83 84 83 84 83 81 74 66 70 97 90 68 48 42 36 28 23 21 19 17 16 18 25 24 17 13 19 37 100 100 100 100 100 100 100 100 100 100 100 100 100 100
67 67 66 64 62 65 68 69 70 70 70 68 64 64 59 54 48 41 34 27 22 19 17 16 21 27 26 17 15 20 58 100 100 100 100 100 100 100 100 100 100 100 100 100
80 71 64 61 59 60 61 61 64 66 66 67 66 62 60 58 54 49 43 36 28 23 18 15 14 24 37 34 21 19 19 47 99 100 100 100 100 100 100 100 100 100 100 100
65 68 71 73 74 73 71 71 69 69 72 72 71 70 70 68 64 60 54 47 36 27 23 18 14 13 22 44 42 31 24 26 36 92 100 100 100 100 100 100 100 100 100 100
56 61 63 62 61 57 54 50 51 50 48 46 43 44 46 46 45 45 43 41 36 29 23 21 16 14 14 25 49 50 39 36 38 50 89 99 100 100 100 100 100 100 100 100

GFSNGP_500_rhum_210.txt.gz
RH
69 82 95 96 98 100 100 100 100 97 99 100 96 94 82 48 32 33 51 75 32 47 52 70 67 81 96 91 72 67 53 68 76 79 81 76 60 67 99 84 76 85 76 65
90 97 99 84 88 100 100 100 100 100 99 98 87 47 43 49 42 62 38 30 42 72 93 100 100 100 100 70 40 29 23 27 28 36 68 79 73 61 50 58 46 59 96 95
77 88 89 70 89 100 100 100 100 92 64 36 46 57 72 42 46 47 68 76 98 100 100 100 95 90 77 36 16 15 6 6 15 24 52 78 67 48 44 42 57 44 60 85
99 100 99 100 100 94 73 52 34 38 58 80 88 67 74 63 70 99 100 100 72 70 73 87 94 78 66 42 14 9 7 8 10 14 67 97 100 83 54 68 75 58 81 81
100 100 89 68 42 53 62 65 88 82 97 84 79 59 92 70 100 100 100 100 100 97 93 89 83 96 63 51 24 10 13 14 13 14 70 100 100 73 82 98 67 52 48 90
29 35 39 39 72 68 71 84 82 94 98 93 81 70 49 81 100 100 100 100 93 87 61 72 70 84 54 48 13 23 23 14 9 11 61 98 100 99 100 84 53 56 67 96
29 67 82 96 100 100 100 100 97 94 97 69 59 85 98 100 100 100 100 100 86 84 54 53 60 67 52 29 33 19 10 8 6 7 32 73 100 100 100 100 98 97 100 100
58 100 100 100 100 97 100 100 100 99 76 67 55 99 100 100 99 100 88 74 64 99 68 72 40 72 56 25 18 16 11 8 7 6 12 27 100 100 100 100 100 100 100 99
49 44 70 91 96 90 81 75 79 74 38 65 100 100 100 100 100 98 96 97 94 82 59 52 37 41 44 31 17 15 13 10 8 8 6 14 87 100 100 98 100 100 100 98
58 84 64 66 72 100 100 100 88 100 100 100 100 100 100 78 33 28 22 14 11 10 8 7 7 6 6 5 5 6 6 5 4 4 6 7 61 100 100 100 100 100 100 100
63 83 78 78 90 97 97 100 100 100 100 100 98 70 40 27 20 18 16 13 11 10 10 7 6 11 6 6 12 16 14 15 9 5 6 6 35 100 100 100 100 100 100 100
48 55 70 84 94 98 100 100 100 100 100 100 80 40 26 16 18 10 9 9 13 26 51 62 67 66 59 46 43 50 54 40 28 13 7 7 15 99 100 100 100 95 91 98
56 63 72 78 94 94 91 100 95 87 51 40 31 28 28 22 15 10 16 27 38 41 48 53 53 55 70 69 69 54 34 32 27 34 13 12 10 71 100 100 100 100 98 87
58 62 68 74 76 65 52 50 46 41 32 28 25 25 19 15 12 12 13 14 16 18 20 19 19 21 23 84 72 59 68 88 70 59 29 24 13 19 78 96 100 100 100 100
66 66 73 65 70 76 59 47 42 35 33 36 38 29 20 16 14 15 16 18 19 22 26 26 22 20 22 30 85 100 100 84 80 74 64 51 24 10 33 67 92 100 100 100
64 67 69 72 79 78 80 86 80 75 67 55 46 39 31 25 21 20 22 24 28 28 20 26 26 24 22 20 30 97 92 75 69 65 58 37 32 14 9 24 87 94 100 100
58 66 76 79 86 88 86 82 73 65 66 78 81 75 67 63 63 53 50 45 38 26 15 13 12 16 19 19 16 41 90 88 78 62 25 27 26 30 10 8 55 100 100 100
76 85 96 100 100 100 96 94 88 82 82 80 80 79 77 74 72 67 61 55 48 39 25 18 14 13 17 19 17 16 81 100 98 80 70 36 33 33 20 8 42 100 100 100
63 79 100 100 94 98 100 100 100 100 100 100 100 99 88 72 63 64 63 57 44 35 30 22 18 16 15 18 18 15 26 100 100 100 100 100 56 24 21 12 34 100 100 100
100 100 100 95 97 100 100 100 100 100 100 100 98 82 67 73 68 53 42 36 30 26 24 24 24 21 17 16 15 16 15 87 100 100 100 100 97 30 22 26 99 100 100 100
100 100 100 100 100 100 100 92 81 79 79 88 80 72 69 51 65 78 64 51 39 29 27 25 27 28 24 18 15 14 14 54 100 100 100 100 100 100 96 35 78 99 100 97
76 73 72 73 70 73 76 76 76 78 77 74 71 70 71 70 67 63 58 56 58 48 37 25 20 19 19 22 22 17 14 19 97 100 100 100 100 100 80 59 48 64 100 100
69 68 70 74 74 74 75 74 73 73 71 68 63 60 62 66 65 64 66 65 61 57 52 42 26 18 16 16 23 24 17 16 60 100 100 100 100 100 100 100 100 100 100 100
55 55 56 58 60 62 64 64 64 65 63 61 62 60 58 62 65 62 57 61 65 63 58 51 41 26 18 16 18 28 24 17 28 92 100 100 100 100 100 100 100 100 100 100
55 55 58 60 61 64 66 68 70 73 75 76 76 76 75 72 66 66 66 62 59 57 55 52 47 35 23 16 16 25 33 21 32 66 100 100 100 100 100 100 100 100 100 100
54 54 55 57 57 60 63 62 61 61 62 63 63 63 62 63 63 63 63 64 64 64 63 59 52 44 32 21 17 17 29 33 28 62 89 100 100 100 100 100 100 100 100 100
37 27 24 24 23 23 22 22 22 22 22 22 24 26 31 35 39 42 44 46 48 50 52 55 56 50 43 27 19 17 17 32 34 37 74 80 100 100 100 100 100 100 100 100

GFSNGP_500_rhum_216.txt.gz
RH
69 68 68 64 52 54 77 95 100 98 100 100 100 100 100 100 100 87 60 36 24 22 28 39 93 32 84 89 54 59 56 97 94 70 66 39 28 28 57 17 44 22 36 50
49 61 59 55 58 73 68 76 76 68 55 94 100 100 77 40 29 32 34 42 44 80 97 100 83 64 94 100 100 100 94 100 74 28 10 6 6 8 9 9 11 28 56 40
54 49 48 40 41 35 28 12 8 14 24 18 20 33 63 71 61 76 76 81 56 98 100 100 100 100 90 100 100 100 100 71 12 10 14 11 14 12 7 7 18 66 88 76
60 59 43 32 12 5 3 3 6 6 9 17 34 62 86 68 63 57 73 71 66 100 100 100 100 100 100 100 100 100 100 32 26 40 16 20 14 8 7 7 8 36 91 83
55 32 10 4 3 4 4 4 6 9 31 88 95 99 92 100 84 52 59 52 82 100 100 100 100 100 100 81 70 76 91 61 61 56 22 26 12 11 11 6 5 10 80 70
5 3 3 3 4 4 5 5 6 13 26 71 71 95 92 94 92 51 53 88 100 100 100 100 100 100 100 86 71 68 66 67 54 32 34 23 16 14 9 7 4 8 89 94
3 4 4 5 6 7 6 12 13 33 58 61 52 64 52 47 65 50 85 100 100 100 100 100 100 97 90 96 69 67 72 66 60 54 31 16 11 9 6 4 4 7 94 98
4 5 6 9 9 10 22 43 45 52 58 74 89 94 100 100 100 100 100 100 100 100 100 98 100 100 86 90 72 29 18 18 16 13 12 10 7 5 5 4 4 5 99 100
5 6 8 10 14 16 31 50 62 53 44 66 80 81 86 100 100 100 100 100 95 71 66 65 55 38 23 13 9 7 6 5 6 6 6 5 5 4 4 5 4 4 84 100
7 10 11 17 26 24 32 50 57 62 69 72 64 70 86 100 100 94 77 63 29 23 23 17 15 13 13 25 28 27 28 32 32 32 32 28 24 12 10 5 4 22 80 100
9 12 17 20 28 36 42 39 46 60 71 71 71 76 99 95 69 64 48 34 22 20 29 30 25 22 26 28 24 22 25 26 28 35 47 50 42 34 23 9 7 60 83 100
11 12 18 32 31 37 40 44 44 51 54 65 69 77 81 59 43 39 30 32 35 37 28 20 18 16 14 13 14 14 14 13 16 30 69 85 69 43 31 16 18 83 90 100
16 19 23 33 41 41 41 45 56 52 51 41 36 36 30 24 27 34 35 34 31 24 22 20 17 18 20 21 15 13 11 11 13 14 18 71 87 66 48 20 50 93 96 100
20 27 36 38 42 46 54 60 61 71 71 61 52 35 25 27 29 30 32 33 31 27 24 19 18 18 19 23 19 13 14 15 13 11 13 29 58 56 57 23 58 100 100 100
20 24 31 38 45 47 48 49 56 67 73 76 72 68 66 63 63 58 52 45 41 34 28 25 24 25 29 27 23 18 17 16 18 18 12 12 42 68 64 39 36 100 100 100
24 33 39 45 48 48 46 54 68 76 79 89 93 94 92 91 90 85 80 72 68 64 59 57 52 48 44 38 28 23 22 22 20 21 15 12 18 69 63 55 20 100 100 100
36 31 26 26 31 44 93 100 100 100 100 100 100 100 100 97 98 100 100 98 89 84 79 74 69 64 56 50 44 42 34 28 26 20 15 14 12 49 58 55 52 38 100 100
34 51 68 93 100 100 100 100 100 100 100 100 100 100 96 93 92 94 95 94 88 85 80 75 70 64 59 51 41 36 31 30 28 23 22 18 13 39 54 47 51 35 79 100
57 87 100 100 100 100 100 100 100 99 99 99 99 100 96 96 91 86 91 85 84 72 69 65 65 64 57 48 45 41 39 37 35 28 29 25 14 65 73 64 46 53 30 93
83 86 90 88 86 100 100 100 100 100 99 98 98 98 99 100 100 100 97 98 97 97 92 79 68 60 56 50 46 40 34 36 36 26 24 23 15 71 99 81 73 51 41 35
82 90 95 98 98 95 80 74 70 69 72 77 76 73 70 65 54 49 51 63 72 74 76 77 71 64 57 48 43 40 33 32 34 35 22 20 14 52 100 99 88 78 59 37
96 98 98 96 94 94 95 95 97 98 100 100 100 98 91 74 61 58 55 53 51 49 47 48 52 58 52 45 42 48 49 36 37 40 29 21 17 26 90 100 89 79 81 43
96 98 100 100 100 100 100 100 100 100 100 99 91 80 71 66 64 64 65 68 62 59 57 60 60 56 51 48 45 45 53 52 47 46 36 19 22 38 82 100 92 98 100 60
55 59 63 66 70 70 69 61 56 49 43 38 32 30 29 29 30 33 37 43 51 59 60 60 62 61 60 57 51 49 52 53 52 54 47 22 25 63 100 100 100 100 100 71
37 33 29 28 28 27 25 24 24 25 31 39 45 48 48 44 37 33 32 30 28 26 27 38 51 56 58 63 62 51 51 54 54 58 55 37 28 52 100 100 100 100 100 100
18 21 24 28 33 37 41 42 43 40 42 55 60 62 64 66 67 70 74 69 54 39 31 27 24 30 46 53 61 62 53 53 52 52 58 50 28 43 100 100 100 100 100 100
30 32 32 30 28 27 27 27 31 52 60 65 69 73 72 70 70 74 79 80 74 64 54 45 30 24 23 39 50 57 59 57 57 54 57 55 30 35 99 100 100 100 100 100

GFSNGP_500_rhum_219.txt.gz
RH
83 82 82 82 82 76 64 66 56 57 69 56 24 7 4 5 6 8 14 40 40 42 53 36 68 99 98 100 100 100 100 100 84 78 100 98 87 79 48 11 35 26 13 12
82 85 94 77 69 68 64 65 69 41 22 7 4 3 4 4 7 27 64 54 47 69 41 94 100 100 100 95 100 100 100 100 100 100 98 60 15 7 8 9 12 9 8 7
81 84 76 59 54 54 49 39 28 14 6 3 4 4 5 6 12 36 71 54 40 33 48 100 100 100 100 91 100 100 100 96 98 99 38 12 13 22 14 17 10 7 8 7
89 82 73 72 63 57 39 19 5 4 4 4 5 5 9 24 27 62 84 56 48 39 66 100 100 100 100 100 100 100 97 91 89 83 33 22 47 28 23 18 10 12 12 9
95 92 93 87 48 22 7 4 4 4 5 5 6 10 35 32 18 31 57 52 43 48 88 100 100 100 100 94 98 99 83 85 90 89 62 65 57 27 27 21 16 14 9 6
97 92 64 31 9 4 4 5 6 6 5 7 12 22 36 41 67 44 37 46 68 100 96 91 95 100 68 100 100 92 63 50 48 58 59 57 53 48 32 23 14 11 9 6
62 32 13 5 5 5 6 7 6 7 15 19 23 41 29 43 52 60 81 99 100 99 97 93 94 100 97 85 87 81 79 70 38 22 11 8 8 10 12 13 9 5 5 5
16 5 5 5 6 7 7 8 8 19 23 25 33 44 48 50 51 62 86 93 88 98 100 100 100 99 91 100 100 87 53 20 8 6 6 6 7 8 9 8 6 5 4 4
5 6 6 7 8 8 8 12 15 18 28 35 36 39 43 49 55 73 76 93 94 89 49 42 37 32 25 18 18 14 15 17 18 18 20 24 21 19 23 30 26 20 8 5
7 8 8 9 8 10 11 13 18 22 19 20 29 34 46 55 55 68 73 66 67 38 35 34 28 31 28 32 34 23 14 11 10 10 11 13 20 33 63 54 32 22 17 9
10 11 10 13 13 12 18 20 22 31 30 28 30 35 47 61 64 62 44 35 38 38 35 30 33 28 24 19 16 12 10 10 9 10 11 12 13 14 48 76 50 32 13 73
12 13 13 14 17 21 18 20 19 28 34 41 47 50 47 41 43 40 24 17 18 29 36 30 27 20 17 14 11 11 12 12 13 14 15 17 14 12 12 52 55 41 28 100
16 17 17 15 15 17 23 29 33 36 49 59 62 69 66 60 42 24 22 24 28 34 31 28 23 20 19 17 16 16 16 17 14 13 15 16 18 16 11 25 63 48 64 100
18 19 19 20 21 21 25 37 44 47 48 50 49 60 74 75 73 60 55 47 45 36 29 25 23 22 21 19 17 17 18 21 19 17 16 16 18 19 14 12 73 58 48 100
30 29 30 29 25 23 26 38 46 53 62 63 69 81 89 86 82 88 88 86 84 79 73 69 62 57 51 48 46 43 40 36 28 21 17 16 16 15 14 12 27 79 37 88
19 23 26 28 35 38 39 36 32 44 71 91 100 100 100 100 100 100 100 100 100 100 99 100 95 88 80 72 69 64 58 48 40 33 26 20 17 16 15 14 14 59 63 50
25 25 25 28 29 27 47 74 84 100 100 100 100 100 100 100 100 100 100 100 98 95 95 99 98 90 85 81 74 67 62 54 45 38 32 26 22 20 18 16 13 44 60 43
25 25 31 42 57 74 98 100 100 100 100 100 100 100 100 100 100 100 100 100 100 99 71 72 72 70 70 67 63 59 55 48 44 38 30 27 33 30 28 19 12 38 48 49
25 32 42 55 67 75 86 97 100 100 100 100 100 100 100 100 100 100 100 100 100 100 100 97 96 89 79 76 66 54 42 40 41 36 29 24 29 29 26 26 15 51 53 47
23 26 37 64 91 99 99 100 100 100 100 99 100 100 100 96 93 94 96 99 99 95 91 85 81 83 90 94 85 83 74 55 46 42 36 25 24 25 28 22 18 86 86 54
23 25 33 54 69 91 100 100 100 100 100 100 100 100 100 100 100 100 98 94 90 87 85 79 71 61 48 47 57 66 73 67 57 49 43 34 27 22 30 21 23 100 99 71
18 22 27 32 37 45 56 62 71 77 82 90 97 99 99 99 100 100 98 96 97 96 88 78 64 53 50 48 47 47 50 57 64 60 53 37 27 25 30 26 21 98 99 72
17 21 24 27 29 32 34 36 38 39 40 42 44 43 42 40 36 34 32 30 29 29 29 31 34 38 44 49 54 54 51 49 46 45 44 38 38 46 41 30 20 67 95 76
13 15 17 18 21 24 26 29 31 33 34 36 37 38 38 38 39 44 46 50 54 57 56 52 41 31 26 25 39 53 55 50 46 44 44 41 44 62 52 32 22 73 99 83
13 16 19 22 25 27 29 29 29 28 27 28 28 31 34 47 57 62 69 70 67 62 59 62 66 64 48 31 25 27 47 54 52 49 47 43 51 66 58 37 25 92 100 100
14 20 24 28 30 31 30 29 30 29 28 35 54 61 68 72 76 78 77 76 74 74 73 69 70 78 73 64 40 25 23 43 54 55 52 46 52 68 63 48 30 100 100 100
14 19 22 24 25 27 31 35 45 56 60 60 63 64 65 67 71 73 76 79 81 81 80 79 77 74 66 58 50 41 23 24 46 56 58 52 50 63 66 56 36 99 100 100

GFSNGP_500_rhum_222.txt.gz
RH
74 79 80 82 88 93 96 92 84 85 85 89 76 59 33 9 4 4 4 4 5 7 19 11 34 83 100 100 96 71 81 96 100 85 90 100 100 98 97 83 62 23 21 57
61 79 79 69 80 90 85 87 83 86 86 81 61 25 5 4 4 4 5 5 6 12 25 24 52 99 100 99 100 99 92 92 100 100 99 93 89 24 11 8 8 9 11 11
68 68 79 66 69 77 78 75 85 87 62 38 12 5 5 5 5 6 6 7 8 16 25 27 74 100 100 100 100 100 95 100 100 100 100 98 28 9 10 25 24 14 17 14
88 90 82 68 70 75 79 74 60 40 26 10 5 5 5 6 7 12 30 32 10 11 38 36 95 100 100 100 100 100 100 100 100 100 98 90 77 41 42 50 41 20 22 15
96 89 89 83 83 76 60 45 30 15 7 6 5 6 7 9 14 25 32 54 42 24 30 64 96 99 100 100 98 97 100 100 97 78 71 67 65 59 52 46 36 24 23 22
95 96 79 73 70 56 34 18 10 7 6 6 6 7 10 13 21 29 36 47 69 84 98 92 84 98 100 100 100 98 96 96 93 72 56 35 25 20 18 15 16 20 21 20
95 86 72 54 37 21 13 10 7 6 6 8 8 14 21 21 23 27 38 41 67 68 62 66 51 57 81 77 100 96 90 82 80 74 34 9 7 7 8 9 8 8 6 6
72 60 44 34 17 9 8 6 6 8 8 9 13 23 26 31 32 35 38 36 43 44 46 38 60 81 71 84 88 88 92 61 18 10 9 8 8 8 11 14 15 15 13 15
53 28 19 11 7 6 6 8 9 10 12 13 16 18 19 19 20 29 35 39 38 49 74 66 66 74 81 77 64 31 17 17 11 8 7 6 6 6 7 10 11 36 58 37
21 9 7 6 6 6 8 10 11 12 14 17 16 19 23 26 22 22 28 30 50 61 45 47 25 21 20 22 20 20 14 9 8 9 10 9 10 11 12 14 12 10 53 50
7 7 5 6 8 11 13 14 14 15 19 21 23 30 28 31 37 41 41 40 45 46 32 22 23 22 27 30 27 21 15 12 11 11 12 12 13 14 15 17 17 11 43 67
5 5 8 12 14 16 17 18 18 17 19 24 33 38 36 42 49 58 60 55 50 32 25 17 24 32 36 34 29 23 20 17 14 14 13 12 11 13 15 14 14 12 15 76
8 10 11 14 15 19 20 21 22 23 27 30 38 45 55 56 51 51 53 59 65 71 54 32 23 26 29 28 25 20 17 15 16 16 15 14 14 14 12 14 13 13 12 48
12 13 14 16 16 17 19 24 30 34 32 30 32 43 55 62 63 61 61 56 58 69 78 82 78 67 54 42 30 25 21 19 20 21 26 26 23 19 16 15 15 14 12 17
16 18 19 21 23 23 25 27 28 31 34 40 47 48 49 63 87 100 100 98 99 100 100 100 100 99 97 91 84 79 72 66 60 53 45 40 38 34 28 21 16 14 13 12
16 17 18 18 19 21 22 27 34 44 53 58 72 91 99 98 99 100 100 100 100 100 100 100 100 97 95 92 89 87 85 83 80 78 70 60 52 45 37 31 24 20 15 12
17 18 18 17 17 18 19 26 42 61 83 97 100 100 100 100 100 100 100 100 100 100 100 100 100 100 100 100 95 85 83 82 78 74 66 58 50 42 36 30 25 19 19 13
22 21 19 17 16 18 21 31 58 87 100 100 100 100 100 100 100 100 100 100 100 100 100 100 100 100 100 100 100 98 89 74 67 61 54 48 44 40 36 34 29 25 26 17
22 20 16 14 16 22 32 36 51 74 96 100 100 100 100 100 100 95 97 100 100 100 98 95 99 100 96 92 90 90 88 80 72 70 53 41 38 35 31 28 32 27 27 22
20 15 11 10 13 17 23 26 32 43 50 56 64 82 99 100 100 100 100 100 100 100 100 99 97 99 99 98 97 95 88 80 68 59 56 52 48 40 39 30 25 22 25 23
15 9 7 9 12 16 18 20 20 23 26 31 35 42 50 55 62 72 80 87 88 90 98 99 98 96 92 84 78 71 66 65 66 66 57 45 40 43 48 38 28 22 21 24
9 5 6 9 11 13 16 20 22 24 24 25 25 25 25 25 25 25 27 30 33 37 40 43 44 46 47 47 46 46 46 47 50 53 48 37 32 36 51 53 36 24 22 25
4 5 8 9 10 13 16 19 24 25 27 28 28 30 31 31 32 34 36 40 40 39 38 38 39 40 42 41 40 38 33 25 22 26 43 41 35 36 41 42 43 36 25 32
4 7 8 9 14 20 20 19 21 24 28 31 31 30 30 30 36 45 44 48 54 60 65 67 69 70 68 62 55 49 50 49 42 23 24 41 40 38 41 43 42 37 35 43
6 8 8 14 28 36 42 44 43 46 51 54 53 54 54 52 48 51 53 55 58 60 61 65 68 72 74 72 66 62 52 52 52 38 22 33 42 43 44 42 42 42 53 52
8 8 11 25 34 38 40 44 45 46 48 52 52 56 60 63 64 65 68 69 68 68 70 74 76 74 74 76 76 72 66 63 61 52 26 25 43 47 47 43 42 53 65 52
8 8 13 30 37 42 46 48 50 52 55 58 63 65 69 72 76 79 81 84 84 78 69 70 76 76 75 79 80 77 74 72 63 57 35 22 38 50 50 46 44 61 67 48

GFSNGP_500_rhum_225.txt.gz
RH
96 96 91 78 66 63 59 80 81 81 92 98 99 80 82 69 42 18 8 5 3 2 2 2 2 3 14 78 93 87 46 64 97 100 98 100 100 99 100 97 92 90 36 25
80 90 85 72 68 63 65 77 75 81 72 92 80 72 61 42 17 9 5 3 3 4 3 3 3 5 85 100 100 100 91 68 88 99 91 100 100 81 14 19 10 12 10 11
72 69 67 52 56 65 74 79 77 72 77 71 66 47 28 16 9 4 4 4 5 7 5 5 6 27 70 94 95 100 98 92 98 93 100 93 95 100 49 12 15 39 43 25
82 77 63 54 49 54 63 74 82 78 72 56 35 22 14 7 4 5 6 6 8 18 25 45 18 51 70 85 96 95 100 100 100 99 97 92 73 72 72 70 63 62 58 55
95 89 73 82 46 69 80 76 72 60 45 32 20 10 5 4 5 6 8 10 17 28 42 63 63 81 80 86 90 100 100 99 100 100 98 70 61 36 27 22 21 20 22 25
98 96 91 81 63 86 80 64 53 40 26 13 5 4 5 6 8 10 14 14 18 27 46 45 54 68 67 82 75 99 91 98 98 85 72 72 61 38 17 10 8 8 8 9
100 100 86 88 75 84 64 44 35 17 6 5 4 6 8 9 10 12 15 20 20 27 34 32 35 36 40 42 37 48 48 71 74 78 82 63 26 9 6 5 4 4 4 5
100 100 99 79 76 58 42 15 7 5 4 5 7 9 10 11 13 14 15 16 17 19 25 27 32 33 46 57 48 84 80 79 83 68 29 12 6 5 5 6 6 6 7 8
100 100 87 76 53 28 9 5 5 5 7 9 10 12 12 13 13 13 16 18 18 16 16 21 26 49 60 62 53 74 72 66 42 25 12 6 7 6 6 8 8 9 10 10
99 79 58 44 10 5 5 6 8 9 11 14 15 15 15 16 17 17 19 24 26 29 34 35 34 41 42 36 25 19 21 22 27 26 11 9 8 7 8 8 8 10 11 13
72 34 10 6 6 7 9 10 11 12 13 14 17 18 19 20 21 24 26 32 36 42 48 55 54 41 32 26 26 26 26 31 29 24 19 15 13 11 10 10 9 9 10 12
8 6 6 10 11 12 13 14 16 17 17 18 19 20 21 24 28 33 36 46 54 52 51 55 62 71 68 48 30 34 42 39 32 26 22 18 15 16 15 12 13 13 11 10
6 9 10 11 12 13 14 15 15 16 17 18 20 22 23 25 30 34 32 43 62 69 70 65 64 81 82 88 81 68 45 34 38 35 28 22 20 14 14 20 24 20 16 12
10 10 10 11 12 13 14 16 17 17 16 16 17 19 22 28 34 38 43 53 50 57 89 100 98 100 100 100 100 100 99 91 81 72 63 55 47 41 36 29 26 27 25 17
9 10 12 14 16 17 18 19 18 16 14 14 17 24 33 45 59 72 88 100 100 100 100 100 100 100 100 100 100 100 100 100 100 100 98 92 87 82 71 61 52 41 30 25
13 15 16 16 17 18 18 16 12 8 9 12 19 49 90 100 100 100 100 100 100 100 100 100 100 100 100 100 100 100 100 100 100 92 92 81 73 70 68 63 57 50 42 31
14 15 17 17 18 17 13 7 6 7 11 17 24 41 91 100 100 100 100 100 100 100 100 100 100 100 100 100 100 100 100 100 100 100 99 96 82 72 70 64 58 52 45 36
18 19 18 16 15 11 6 5 6 9 13 18 24 40 49 67 90 100 100 100 100 100 100 98 91 98 100 99 100 100 100 100 100 100 100 100 96 84 67 52 50 51 48 45
22 19 16 15 10 5 4 7 8 10 12 16 30 38 65 43 34 50 70 86 100 100 100 100 100 95 84 89 96 93 91 90 88 93 98 98 97 97 84 71 56 34 32 28
23 18 16 12 5 4 6 7 8 10 14 17 21 24 25 26 25 24 23 28 40 57 64 77 92 99 100 100 96 96 92 88 84 85 81 77 77 74 69 61 55 51 43 36
22 16 13 7 3 5 6 7 11 20 25 21 17 19 24 29 28 28 31 30 30 28 25 26 29 32 32 33 38 50 57 63 64 62 62 68 77 76 69 59 46 37 32 31
20 15 10 4 5 6 6 10 22 26 32 32 28 25 26 27 30 30 32 30 30 30 32 34 35 36 37 38 38 35 32 30 27 26 26 27 31 38 46 42 35 33 29 27
17 13 6 4 6 6 7 16 24 26 27 30 35 39 43 46 46 44 47 53 52 52 52 52 55 56 58 57 55 53 50 47 43 44 42 40 38 29 23 25 32 31 28 26
16 10 4 6 7 6 10 24 31 34 35 35 38 40 41 45 53 52 53 53 53 53 53 53 52 54 55 54 54 56 59 65 67 65 61 54 46 42 38 24 25 31 31 31
16 8 4 8 8 8 11 26 35 40 44 46 47 50 52 54 56 61 64 66 68 66 62 62 53 45 48 57 65 69 66 62 60 61 62 56 50 44 42 27 25 35 37 35
15 6 6 10 11 10 11 21 36 42 46 50 54 59 65 69 72 72 75 76 77 76 70 57 50 50 53 56 61 68 73 72 68 67 68 63 53 47 44 27 27 42 43 41
15 7 6 11 14 14 13 14 23 38 48 53 59 64 68 69 69 77 82 82 82 81 82 74 57 65 89 91 84 73 67 73 78 76 73 69 64 57 48 26 28 47 48 46

GFSNGP_500_rhum_228.txt.gz
RH
99 82 91 91 90 98 98 100 94 76 80 100 100 100 99 89 86 78 64 42 25 10 4 3 4 4 3 3 4 29 44 44 42 52 76 73 78 100 90 52 46 19 19 28
86 93 93 78 92 95 92 92 85 81 67 100 87 82 85 83 75 56 37 20 7 4 4 5 5 4 4 4 51 74 51 52 31 37 52 75 86 86 82 79 14 40 46 37
71 82 81 62 83 74 76 80 75 66 72 70 70 68 72 69 53 38 18 5 4 4 5 6 6 6 12 57 71 62 53 72 80 63 69 80 68 68 68 55 74 69 61 59
85 93 73 74 72 68 65 67 81 94 100 100 90 74 60 42 30 12 4 4 5 6 6 8 9 13 38 58 64 63 80 71 95 94 94 93 92 86 76 37 28 26 25 23
97 96 84 87 81 66 76 81 86 94 95 87 74 63 33 16 9 4 5 6 7 7 8 9 12 19 38 67 63 67 76 93 98 88 88 93 79 74 68 49 33 16 8 7
99 97 90 84 67 82 88 72 74 88 80 73 66 41 10 5 5 7 7 8 8 9 10 11 11 19 30 33 49 49 68 49 47 51 49 72 80 80 62 23 11 6 5 5
99 97 88 86 69 91 89 86 90 88 77 53 14 7 6 8 8 9 10 10 11 12 12 13 12 12 19 25 27 29 30 46 48 78 84 77 77 62 22 8 5 5 6 6
98 98 94 88 88 98 98 95 87 66 24 6 7 8 9 10 11 12 12 13 15 15 15 14 14 15 13 14 19 24 28 47 51 51 74 76 62 38 13 6 6 7 7 8
100 98 100 94 96 100 94 79 19 7 8 9 9 10 11 12 13 14 16 16 18 18 18 18 18 20 21 27 21 22 36 43 41 32 30 42 43 33 12 9 9 8 8 8
100 100 100 96 91 88 34 8 8 8 8 8 9 10 11 13 14 14 19 19 21 23 24 24 30 27 27 39 47 45 36 34 34 40 42 43 45 37 22 11 11 11 9 9
99 100 99 92 45 10 8 8 8 8 10 12 13 14 15 15 16 16 16 16 22 28 31 31 49 56 52 50 50 65 70 62 44 41 49 52 44 36 29 18 13 11 10 10
100 98 57 11 8 8 7 8 10 12 13 15 16 17 18 18 17 15 15 15 20 29 37 42 45 56 76 91 77 78 80 81 75 67 55 51 56 52 42 33 26 19 13 10
72 21 8 8 7 8 10 12 14 15 16 16 17 17 15 13 13 16 18 20 28 47 62 69 93 85 76 100 100 100 100 100 100 100 99 98 92 76 56 64 43 31 23 20
9 7 6 8 11 13 14 16 17 16 15 14 13 9 6 7 10 25 89 100 100 100 100 94 100 100 100 100 100 100 100 100 100 100 100 100 100 100 98 95 92 100 94 76
6 8 10 13 16 19 20 20 18 15 13 9 5 4 4 5 10 21 55 100 100 100 100 100 100 100 100 100 100 100 100 100 100 100 100 100 100 100 100 91 89 83 78 76
11 13 17 21 23 24 22 19 14 11 7 4 4 5 6 8 12 31 63 100 100 100 100 100 100 100 100 100 100 100 100 100 100 100 100 100 100 100 100 91 70 68 71 56
17 21 24 25 25 24 20 14 10 6 3 4 6 7 8 14 22 25 33 51 65 97 100 97 100 100 100 100 100 100 99 100 100 100 100 100 100 100 100 100 94 77 80 70
23 24 26 28 27 21 15 10 5 3 4 5 6 10 14 17 18 18 18 26 68 98 95 95 100 97 100 100 100 100 100 100 100 98 92 95 98 99 99 100 100 97 84 78
27 32 33 30 23 16 12 6 3 4 5 5 9 18 24 28 32 27 19 18 22 25 29 26 27 28 38 76 100 100 100 94 97 100 100 86 82 80 81 84 86 87 94 94
33 34 33 27 18 13 8 3 4 6 5 6 15 18 20 23 27 29 28 29 29 26 27 30 33 33 31 29 28 37 46 62 74 92 100 92 83 81 82 85 82 76 68 66
36 35 31 23 15 12 5 4 6 8 7 8 19 24 25 27 28 28 30 33 41 44 46 48 47 43 37 37 37 37 35 33 30 29 28 29 32 47 51 57 69 81 80 71
37 34 29 20 14 10 4 5 8 9 9 9 22 31 35 37 37 40 44 40 44 45 46 46 45 44 44 47 50 53 55 52 46 39 35 36 35 34 29 26 28 39 50 58
37 34 27 18 14 8 4 6 9 11 12 11 16 31 40 44 47 46 51 58 58 60 60 60 58 55 52 52 50 49 50 50 53 54 55 58 57 47 39 36 33 25 23 28
37 34 26 18 14 8 5 7 12 14 15 13 15 27 38 46 58 58 58 62 66 69 72 71 70 72 72 56 46 44 48 48 46 50 55 57 54 53 58 59 51 40 32 23
38 35 26 19 15 8 5 8 14 17 18 16 15 23 42 52 54 58 62 64 69 74 82 81 80 90 95 92 64 60 72 78 72 59 53 60 65 59 56 57 59 53 41 36
42 37 28 20 16 10 6 8 15 20 22 22 18 17 26 41 51 56 61 65 66 70 74 75 66 48 69 89 75 76 91 91 83 77 62 63 68 68 66 65 58 52 41 38
46 40 30 22 18 13 9 8 15 21 24 26 24 20 18 22 34 46 59 69 72 75 76 71 68 69 55 59 68 75 96 98 89 79 72 71 74 76 75 70 61 49 41 37

GFSNGP_500_rhum_234.txt.gz
RH
76 72 69 69 70 73 91 99 92 80 93 94 88 86 92 98 98 96 98 97 95 95 98 94 86 49 24 14 8 5 5 5 6 7 8 8 15 23 27 28 32 42 42 40
82 96 85 71 71 79 100 100 97 92 88 99 99 98 97 99 99 98 97 96 98 97 84 55 30 22 17 9 6 5 6 8 9 9 9 18 39 38 48 49 44 48 51 32
87 89 80 61 70 96 98 99 92 84 93 100 98 97 97 97 97 97 97 96 91 74 39 24 18 17 6 6 7 8 9 10 11 12 11 17 51 54 61 66 64 54 48 48
88 90 71 63 79 96 92 97 100 97 97 90 84 84 90 96 96 98 92 86 71 42 21 9 7 6 7 9 10 10 11 12 13 13 12 18 48 60 77 76 65 62 47 46
100 91 71 69 92 100 100 100 100 95 93 91 92 95 100 98 96 96 82 52 25 10 7 7 9 11 11 11 13 14 14 15 15 15 14 12 22 43 73 76 45 50 46 47
95 96 83 87 94 97 100 96 100 98 97 98 99 96 100 96 94 74 41 16 7 7 10 11 13 15 14 13 14 16 18 17 18 18 17 15 15 18 32 55 64 50 57 76
98 95 83 82 92 100 100 100 99 100 100 100 100 99 99 76 29 10 7 10 12 14 15 16 16 16 15 14 14 16 18 22 21 22 21 20 22 31 40 45 61 90 100 98
100 99 83 82 94 100 99 95 98 98 99 99 99 90 49 12 7 10 13 15 17 18 18 17 16 14 13 12 12 12 12 17 27 27 33 36 42 48 50 50 58 66 95 80
100 95 92 95 100 97 97 100 98 97 100 96 70 17 7 10 14 17 20 20 20 18 17 14 11 8 7 6 6 9 10 10 19 36 57 78 84 72 76 63 61 67 90 74
99 99 100 95 96 96 100 97 100 99 80 22 8 12 16 18 21 22 22 20 18 15 12 7 4 6 27 33 76 91 90 77 72 47 57 58 100 100 100 99 83 77 79 77
96 98 99 97 98 100 100 100 85 34 9 13 17 19 20 20 20 20 19 16 12 7 4 4 5 26 92 74 100 100 100 100 97 75 81 95 87 99 100 100 100 98 93 85
98 100 98 99 100 100 95 56 10 13 18 19 20 21 21 21 20 18 13 9 5 3 4 5 6 28 80 100 99 100 100 100 94 85 84 83 51 85 100 100 100 100 100 98
100 100 100 100 98 78 16 10 16 18 19 20 20 20 19 18 16 11 8 5 3 4 7 7 6 7 15 100 95 97 100 100 100 100 100 100 70 62 89 100 100 100 100 100
99 99 98 94 37 9 15 19 20 21 21 21 19 20 19 14 11 7 4 4 6 8 8 7 8 13 18 24 100 100 81 100 100 100 100 95 100 100 63 43 85 100 100 100
97 98 74 12 11 18 20 21 22 23 24 25 25 18 14 11 8 4 4 6 8 9 8 7 14 19 18 22 30 33 70 98 100 100 100 100 100 100 100 76 51 58 100 100
92 26 7 14 18 20 23 24 26 28 28 26 19 14 12 9 6 4 5 7 10 11 8 10 21 24 22 21 23 27 33 40 55 99 100 100 100 100 100 100 86 66 100 100
6 9 16 19 23 26 28 30 32 30 28 20 16 13 11 7 5 4 7 12 14 12 10 17 28 32 30 28 26 26 28 25 23 29 49 94 100 100 100 96 100 94 82 99
13 18 20 26 30 33 35 35 34 31 23 18 16 13 10 6 5 4 8 15 17 13 13 22 34 39 40 40 41 38 33 32 35 32 28 26 46 86 99 100 100 92 89 93
17 23 29 34 37 40 39 35 35 28 22 18 15 13 9 6 5 6 11 20 20 16 14 24 35 43 47 49 50 53 53 47 42 39 40 41 37 39 45 52 61 89 100 95
28 31 38 41 43 44 38 37 34 27 22 19 15 13 9 8 6 8 15 23 24 19 14 22 33 44 52 52 53 53 52 56 59 59 58 52 45 48 53 47 40 36 34 41
36 41 44 45 46 44 40 38 34 28 23 19 16 14 11 10 8 7 14 25 28 25 16 21 33 49 56 56 52 52 54 58 58 49 45 60 70 72 58 53 56 52 43 35
42 45 46 46 45 42 39 39 36 30 25 21 18 17 14 13 11 8 11 20 31 32 19 20 39 56 59 58 68 72 75 73 66 52 42 46 66 86 83 65 45 42 45 46
45 47 48 43 41 41 41 44 40 33 28 24 22 20 17 15 16 11 10 20 32 36 25 22 48 53 52 63 64 52 46 48 49 46 46 55 65 66 60 55 50 44 37 33
48 49 44 40 42 43 48 51 45 38 33 30 26 25 23 23 23 17 9 14 28 40 30 28 51 50 60 54 40 40 38 34 36 40 45 51 55 60 64 70 69 62 47 35
49 42 40 42 47 48 54 56 52 44 39 36 32 30 31 28 29 26 14 10 24 42 34 34 48 43 33 31 35 37 37 31 27 28 34 43 59 89 95 91 78 72 64 45
45 41 41 47 50 53 60 63 59 52 47 44 41 37 37 36 36 35 21 11 20 44 37 35 32 28 29 31 33 36 37 36 30 26 27 35 70 94 92 81 69 68 66 52
43 42 45 52 55 58 64 66 64 61 57 54 52 47 44 45 44 42 32 13 14 42 39 32 28 30 32 31 32 35 39 40 39 34 29 30 46 87 95 92 71 61 56 54

GFSNGP_500_rhum_237.txt.gz
RH
98 100 100 99 94 94 96 100 96 75 86 89 84 79 76 81 88 90 98 100 96 100 100 100 99 96 89 80 58 33 13 7 5 6 8 8 9 9 8 8 8 12 18 24
89 100 100 84 73 81 96 97 96 94 88 96 87 88 95 100 93 93 97 98 100 99 98 97 94 90 63 39 21 8 6 7 9 10 10 11 11 11 11 10 10 13 31 40
67 85 87 64 84 86 90 100 97 97 94 81 86 90 94 97 98 97 97 97 95 97 96 85 58 35 16 9 7 9 10 11 12 12 13 13 14 13 13 12 12 14 42 55
69 93 84 75 67 78 86 93 100 97 93 92 88 93 100 97 95 94 97 99 94 80 67 39 15 8 9 11 12 13 15 16 16 16 16 16 16 16 15 15 13 16 55 82
95 84 73 66 84 99 99 86 96 100 98 95 96 98 98 97 97 96 89 81 69 38 13 9 11 14 16 18 20 20 19 18 18 17 18 18 18 18 18 18 16 13 17 43
60 83 78 54 68 100 100 78 99 98 100 99 99 97 98 91 88 88 63 15 9 10 14 17 19 21 22 22 22 20 17 15 13 12 17 17 20 19 19 20 20 19 17 18
84 95 80 63 88 96 93 94 92 100 99 98 95 92 93 94 48 12 10 13 16 19 21 22 22 21 21 19 17 14 11 7 5 5 7 31 35 23 23 29 32 35 32 35
99 100 89 92 89 97 98 100 100 100 99 97 95 97 70 24 10 13 16 18 19 19 19 19 19 18 14 11 9 8 6 5 5 9 28 36 56 72 68 51 69 79 75 58
100 100 100 97 98 100 100 100 100 99 95 92 96 69 15 11 15 17 18 18 19 19 19 18 15 12 9 6 5 4 5 6 12 41 60 100 88 96 99 60 59 100 100 92
100 100 100 100 100 100 100 99 98 93 91 96 49 11 12 16 18 19 21 21 21 19 16 14 12 9 7 4 4 6 8 8 49 86 100 100 100 95 84 57 42 34 88 100
99 100 99 100 100 99 98 96 89 97 86 19 10 15 18 20 22 23 23 20 17 15 13 11 8 5 3 4 6 8 9 8 62 100 100 100 100 100 100 87 57 39 67 99
98 99 100 100 98 99 96 91 95 50 10 14 18 21 24 26 26 22 18 17 15 12 10 6 4 4 5 9 10 9 7 8 22 72 100 100 100 100 98 96 100 92 66 37
99 99 98 99 98 95 97 90 14 12 16 21 24 28 28 24 22 21 18 15 12 9 6 4 4 5 10 12 9 8 10 17 20 27 100 100 100 100 98 100 100 100 73 42
99 99 97 96 99 99 47 9 13 18 23 27 28 23 22 26 24 19 15 12 9 6 5 4 6 12 14 12 10 14 23 23 23 32 92 100 100 100 94 100 100 100 98 85
100 94 95 100 93 13 9 13 19 26 28 24 25 29 28 26 20 16 13 10 8 6 5 5 10 18 17 13 14 25 30 30 26 28 33 82 100 100 100 100 100 100 100 100
87 97 99 60 7 9 14 22 28 28 26 31 36 30 29 22 18 14 13 10 8 6 6 6 12 20 20 14 15 27 39 43 38 32 30 34 36 48 100 100 100 100 100 98
95 100 23 7 11 16 26 29 28 27 38 37 32 34 27 23 18 16 13 9 8 8 6 7 16 24 22 15 18 28 41 45 48 49 45 37 36 36 39 95 100 100 100 96
83 7 8 13 20 28 28 27 33 41 35 36 40 34 29 24 21 18 14 10 10 10 8 9 23 29 20 19 27 39 44 47 47 46 50 52 55 49 43 43 39 38 51 81
6 10 14 24 27 25 29 37 39 34 38 42 42 36 31 27 23 20 17 13 13 12 9 9 24 28 21 25 31 36 40 44 50 52 53 53 53 54 56 61 55 50 50 43
12 18 26 23 24 31 39 37 34 38 41 45 45 40 35 31 26 24 23 18 16 16 9 10 28 23 19 22 25 28 33 34 34 37 47 61 71 75 73 57 55 66 61 54
22 26 22 24 34 39 37 35 37 41 44 49 49 45 40 36 33 29 28 24 22 22 10 17 28 19 23 27 28 28 30 32 34 34 34 36 43 49 49 47 49 57 86 85
24 23 27 38 38 36 34 38 38 41 47 52 52 50 46 44 41 37 31 29 24 26 11 22 23 21 32 38 35 30 32 34 35 35 32 27 30 35 41 44 48 54 74 86
24 30 37 36 35 33 36 38 38 42 48 53 57 59 56 51 46 42 38 37 32 31 12 24 21 26 42 52 47 32 32 36 38 37 36 29 25 28 36 46 56 64 69 70
30 34 33 32 32 34 37 38 38 42 48 56 66 69 63 59 53 49 41 40 36 34 14 23 21 27 46 60 60 40 32 39 44 44 41 36 28 27 31 40 55 61 67 68
31 30 29 30 34 36 35 38 40 44 53 62 74 77 71 66 61 59 47 44 43 36 18 20 23 26 45 62 70 59 35 36 48 52 44 37 33 30 37 75 94 94 90 81
27 27 30 33 34 34 36 40 42 48 58 68 81 86 84 77 72 68 57 49 48 41 28 14 27 22 40 62 75 75 58 35 42 54 52 37 31 32 50 85 88 84 69 66
26 29 32 32 33 35 38 42 46 52 64 75 87 92 91 87 82 76 73 58 54 49 39 13 29 20 33 57 77 82 77 56 36 47 57 58 52 51 70 78 80 73 59 56

GFSNGP_500_rhum_240.txt.gz
RH
76 92 95 88 90 100 94 100 97 64 62 72 75 79 78 82 70 77 89 96 100 100 100 100 98 100 99 99 96 83 70 32 12 8 9 11 13 14 15 15 16 15 14 14
49 73 82 61 74 89 94 97 95 88 75 81 83 91 85 68 71 83 92 94 98 99 98 98 97 96 91 72 40 17 9 9 11 14 14 16 17 19 19 19 18 17 16 15
12 29 42 53 70 80 74 95 98 92 77 64 59 62 66 69 82 88 87 91 96 97 96 95 82 47 18 10 10 13 15 16 18 19 19 21 21 20 19 17 16 15 15 15
11 16 12 13 13 17 35 84 100 90 82 66 61 68 77 90 91 94 94 95 96 93 72 29 12 11 13 16 17 18 19 20 21 21 20 19 17 16 13 12 10 10 10 13
12 22 14 8 20 47 70 67 100 99 79 72 80 90 92 95 95 92 94 97 81 28 11 12 16 17 18 19 20 21 20 19 18 16 14 12 11 8 9 7 5 4 6 11
19 23 16 12 40 83 100 78 100 93 92 99 98 99 99 96 95 97 97 62 13 14 17 19 21 21 21 20 19 18 16 15 13 12 10 8 7 5 5 8 11 11 10 16
24 28 17 45 83 100 100 95 98 100 100 96 96 97 95 95 99 95 43 14 18 20 21 22 22 22 20 19 17 15 13 12 10 9 7 6 5 8 16 15 61 60 46 63
46 42 39 83 98 100 100 92 100 98 98 100 99 96 99 98 91 21 16 20 22 24 24 23 21 19 18 15 13 12 10 9 7 5 4 5 7 9 37 41 64 100 95 99
62 64 92 100 98 100 100 96 94 100 100 98 98 98 98 65 13 17 21 25 26 26 25 23 20 17 15 12 10 9 8 5 4 3 4 8 9 10 11 100 87 100 100 79
67 96 100 97 100 100 99 100 100 99 100 98 98 95 19 14 19 25 27 27 26 26 24 20 18 15 12 10 9 6 5 4 4 6 10 11 10 9 15 100 91 100 100 96
91 100 94 100 100 100 100 97 95 100 99 100 65 11 16 23 26 27 27 29 27 23 22 20 16 12 10 10 8 5 4 5 11 14 13 9 8 9 22 100 100 100 100 100
83 100 100 99 100 100 95 93 99 100 97 23 12 19 25 26 28 29 31 25 24 25 22 17 15 12 11 8 6 5 5 10 17 16 12 11 16 19 22 100 100 100 100 100
86 95 97 100 100 96 93 99 99 84 10 15 22 25 27 30 32 25 25 29 30 26 22 18 14 12 10 7 5 6 12 19 18 14 14 22 26 24 27 88 100 100 100 100
48 72 100 98 92 94 98 97 51 10 16 22 24 29 26 22 23 27 33 34 31 26 22 18 15 12 9 6 6 13 21 18 16 18 24 31 35 32 45 100 100 100 100 100
31 77 96 97 98 97 96 30 10 18 22 24 30 20 20 25 31 36 37 37 32 26 23 20 17 12 9 7 13 17 15 17 19 23 33 37 41 42 37 87 100 100 100 100
47 83 96 96 96 91 15 11 20 22 26 25 17 21 27 34 38 37 43 39 34 29 25 24 20 13 9 11 15 17 20 23 24 25 26 30 36 44 51 46 39 52 89 100
81 91 96 99 66 8 14 19 22 27 20 17 22 29 36 37 39 50 48 43 36 33 29 28 21 14 11 15 17 24 30 32 30 30 29 30 33 36 45 53 61 53 48 65
93 99 98 35 8 15 18 23 24 17 17 23 30 35 35 40 52 56 54 48 41 39 34 32 22 16 13 16 22 33 44 42 31 30 32 32 32 33 43 52 56 66 80 63
99 94 14 9 17 18 24 22 16 17 23 30 32 33 39 49 53 58 60 54 47 44 38 37 24 17 14 17 26 39 49 50 32 31 35 36 34 34 34 38 58 75 72 78
53 7 12 18 19 24 19 15 17 23 28 31 31 36 45 49 55 62 66 60 54 49 43 41 27 18 15 17 30 45 56 59 36 32 37 41 40 36 33 32 36 50 79 86
8 15 20 20 24 16 15 18 22 27 29 29 34 41 46 51 58 68 72 69 64 58 49 46 31 20 17 18 34 52 65 68 44 34 43 48 48 42 36 28 28 36 49 52
17 21 22 22 16 16 18 22 26 28 28 31 38 41 47 54 63 71 75 73 70 65 56 51 34 22 18 19 35 60 72 76 54 36 47 52 47 36 36 30 26 29 31 35
22 26 21 16 16 18 21 24 26 27 29 35 40 43 51 56 64 73 84 83 80 72 65 56 39 25 19 20 36 64 78 80 66 37 49 55 55 38 31 30 29 30 36 41
30 22 17 17 18 20 23 26 26 28 30 35 39 46 54 60 67 75 83 85 85 79 74 62 44 31 19 20 34 66 79 82 79 41 44 58 57 54 42 38 47 63 79 84
22 18 18 18 20 22 25 25 27 29 31 35 38 45 54 65 72 78 88 92 91 87 82 67 51 40 18 21 30 64 82 85 87 56 41 56 62 62 63 70 77 81 82 81
20 20 19 19 21 24 24 27 30 29 30 33 38 45 56 66 73 79 88 93 96 90 84 72 58 45 16 22 26 61 81 87 90 78 48 45 59 66 71 73 71 67 61 54
22 20 20 21 22 23 26 30 31 30 31 33 37 47 58 67 75 82 90 98 100 94 88 78 65 49 23 24 22 51 80 88 92 89 79 58 48 54 65 70 74 76 71 64